Location: C�an Torras
(41.5052°N, 1.9280°E)
Time: 18:43:16
(UTC+00:00)

CSL-04 Rocket - Pass Details

Date: 20 January 2021
Orbit: 806 x 860 km, 98.9° (Epoch: 02 March)

Event Time Altitude Azimuth Distance (km) Brightness Sun altitude
Rises 18:30:11 0° 149° (SSE) 3,343 6.6 -17.9°
Reaches altitude 10° 18:32:33 10° 145° (SE) 2,422 5.8 -18.4°
Maximum altitude 18:37:44 51° 70° (ENE) 1,041 3.8 -19.3°
Drops below altitude 10° 18:43:01 10° 356° (N) 2,472 6.1 -20.3°
Sets 18:45:27 0° 352° (N) 3,419 6.9 -20.7°
